Showing default

ORBITER SN3, 56960

Orbit data source: Space-Track

ORBITER SN3, 56960 is a payload satellite owned by Launcher Inc (US) in SSO that was launched on Mon, 12 Jun 2023 UTC via an FALCON 9 launch vehicle from the Air Force Western Test Range (AFWTR). Payload-class satellites include a variety of spacecraft equipped with specific instruments for various scientific and technological missions. These include communications satellites like Starlink; space stations such as the ISS; scientific satellites like the Hubble; Earth observation satellites from companies like Planet Labs, Umbra, and HawkEye 360; GPS; miniature CubeSats for education and research; and military/defense satellites.

Loading next visibility...
Identifier
56960, 2023-084AE
Orbit
SSO
Country
Flag of USUS
Related business
Manufacturer
Launcher Inc
Mission
Operational Commercial Technology
Bus & Motor
LAORB1, AOCS
Mass
223 kg wet, ~150 kg dry
Launch date (UTC)
2023-06-12 (3 years ago)
Launch vehicle
FALCON 9
Launch site
Air Force Western Test Range (AFWTR)
Object type
Payload
Rocket body
Debris
Shape & HBR
Oct Cyl, 0.5 m
Radar Cross Section
0.583 m², Medium (>0.1 m² and < 1m²)

Expand to show TLE details & history
Last TLE update: 8 hours ago

TLE from 8 hours ago
0 ORBITER SN3
1 56960U 23084AE  25346.96437110  .00012848  00000-0  43064-3 0  9997
2 56960  97.6012 117.3584 0007444 274.7808  85.2583 15.31031114138965
Epoch: 2025-12-12T23:08Z
TLE epoch observation values (Epoch: 2025-12-12T23:08:41.663Z)
Latitude
0.00006°
Longitude
48.28635°
Altitude
475.416 km
Speed
7.628 km/s
True Right ascension
07h 49m 26s
True Declination
0° 00' 00"
Sunlit
Object was in full shadow at epoch
Visualization orbit readout
Latitude
Unknown
Longitude
Unknown
Altitude
Unknown
Speed
Unknown
Apparent Right ascension
Unknown
Apparent Declination
Unknown
Sunlit
N/A
Visualization observer readout
Local Sidereal Time
05:21:58
Azimuth
Unknown
Elevation
Unknown
Doppler factor
Unknown
Orbital elements
Apogee altitude
474.792 km
Perigee altitude
464.597 km
Semi-major axis
6,847.831 km
Eccentricity
0.00074
Inclination
97.6012°
RAAN
117.3584°
Arg. of periapsis
274.7808°
True anomaly
85.34332°
Mean anomaly
85.2583°
Eccentric anomaly
85.30081°
Mean motion
3.83013 °/min
Orbital period
93.99 mins
BSTAR
0.00043064
Loading maneuver chart data...
Computing Atmospheric mass density...
Loading historical data...
Loading historical data...
Loading historical data...
Loading historical data...
Loading historical data...
Loading historical data...
Loading historical data...

Documentation

Showing up to 5 results
|